Location: G�rlitz
(51.1670°N, 15.0000°E)
Time: 18:43:13
(UTC+01:00)

ISS - Visible Passes

Search period start: 14 February 2026 00:00
Search period end: 24 February 2026 00:00
Orbit: 413 x 428 km, 51.6° (Epoch: 13 February)

Date Brightness Start Highest point End Pass type
(mag) Time Alt. Az. Time Alt. Az. Time Alt. Az.
14 Feb -2.1 06:23:09 10° SW 06:26:11 32° SSE 06:29:13 10° E visible
15 Feb -1.6 05:36:31 10° SSW 05:39:15 23° SE 05:41:59 10° E visible
16 Feb -1.3 04:51:33 16° SSE 04:52:20 17° SE 04:54:33 10° E visible
16 Feb -3.3 06:25:24 10° WSW 06:28:42 60° SSE 06:32:00 10° E visible
17 Feb -0.5 04:06:35 10° ESE 04:06:35 10° ESE 04:06:37 10° ESE visible
17 Feb -2.9 05:39:35 19° SW 05:41:39 45° SSE 05:44:52 10° E visible
18 Feb -2.5 04:54:30 33° SSE 04:54:38 33° SSE 04:57:41 10° E visible
18 Feb -3.8 06:27:55 10° W 06:31:16 89° S 06:34:37 10° E visible
19 Feb -0.9 04:09:20 16° ESE 04:09:20 16° ESE 04:10:24 10° E visible
19 Feb -3.7 05:42:19 25° WSW 05:44:09 77° SSE 05:47:30 10° E visible
20 Feb -3.5 04:57:04 61° SSE 04:57:04 61° SSE 05:00:20 10° E visible
21 Feb -1.3 04:11:45 22° E 04:11:45 22° E 04:13:09 10° E visible
21 Feb -3.8 05:44:43 23° W 05:46:40 83° N 05:50:01 10° E visible
22 Feb -3.9 04:59:22 83° W 04:59:29 89° E 05:02:50 10° E visible
23 Feb -1.6 04:13:59 27° E 04:13:59 27° E 04:15:39 10° E visible
23 Feb -3.8 05:46:57 20° W 05:49:10 83° N 05:52:31 10° E visible
